Notices

What's New in latest Release from April 7th, 2021:

- Updated Glossary, including Speed of Maximum Gust, and Total Hourly Precipitation

- Updated national and regional climate services offices contacts and prices information

- Addition of station inventory lists for 1981-2010, 1971-2000, and 1961-1990 Normals.

If you haven't already, please take our survey and provide feedback about our website: https://eccc.sondage-survey.ca/f/LanguageSelection.aspx?s=442ca660-fcf1-47c0-95a9-59707d6fd709

Hourly Data Report for November 10, 2019

MIRAMICHI RCS
NEW BRUNSWICK
Current Station Operator: ECCC - MSC

47°00'34.000" N
65°27'54.000" W
33.00 m
8100989
71744
ACQ

Download Data

Hourly Data (November 2019)
Hourly Data Report for November 10, 2019
TIME
LST
Temp Definition
°C
Dew Point Definition
°C
Rel Hum Definition
%
Precip. Amount Definition
mm

Wind Dir Definition
10's deg

Wind Spd Definition
km/h
Visibility Definition
km
Stn Press Definition
kPa
Hmdx Definition


Wind Chill Definition


Weather Definition


00:00 -3.8 -6.1 84 0.0 23 6   101.56   -6 LegendNANA
01:00 -5.8 -8.0 84 0.0 19 9   101.50   -10 LegendNANA
02:00 -5.4 -7.5 85 0.0 22 6   101.46   -8 LegendNANA
03:00 -6.5 -8.2 88 0.0 21 7   101.46   -10 LegendNANA
04:00 -6.4 -8.0 89 0.0 24 4   101.39   -8 LegendNANA
05:00 -7.1 -9.0 87 0.0 21 9   101.33   -11 LegendNANA
06:00 -6.7 -8.1 89 0.0 24 6   101.29   -10 LegendNANA
07:00 -7.8 -9.1 90 0.0 0 1   101.26   -8 LegendNANA
08:00 -5.7 -7.2 89 0.0 24 6   101.24   -9 LegendNANA
09:00 -2.9 -5.5 82 0.0 21 11   101.22   -7 LegendNANA
10:00 -1.7 -4.5 81 0.0 27 2   101.16   -2 LegendNANA
11:00 0.6 -3.9 72 0.0 22 15   101.09     LegendNANA
12:00 1.9 -3.3 68 0.0 21 19   100.95     LegendNANA
13:00 2.9 -1.8 71 0.0 20 22   100.86     LegendNANA
14:00 3.3 -0.8 75 0.0 21 25   100.77     LegendNANA
15:00 3.3 0.0 79 0.0 20 20   100.70     LegendNANA
16:00 2.9 0.5 84 0.0 20 14   100.67     LegendNANA
17:00 2.7 1.2 89 0.0 20 12   100.60     LegendNANA
18:00 2.6 1.5 92 0.0 22 10   100.59     LegendNANA
19:00 2.7 1.9 94 0.0 24 11   100.59     LegendNANA
20:00 2.5 1.9 96 0.0 21 13   100.61     LegendNANA
21:00 2.6 1.6 93 0.0 23 11   100.62     LegendNANA
22:00 3.0 1.5 90 0.0 22 14   100.64     LegendNANA
23:00 3.0 1.1 87 0.0 22 14   100.64     LegendNANA

Notes on Data Quality.

Legend

  • E = Estimated
  • M = Missing
  • NA = Not Available*
  • [empty] = Indicates an unobserved value
Date modified: